sat.trackr.live / text

‹ back to catalog

APRIZESAT 6

NORAD 37793 · 2011-044F

PAYLOAD ACTIVE UNKNOWN

§ Identity

Operator
Country
US
Launch date
2011-08-17
Launch site
DLS
Launch vehicle
Mass (kg)
RCS (m²)
0.17

Purposes: tech_demo

External: N2YO · Heavens-Above · Gunter

§ Orbital elements

Epoch: 2026-09-15T17:14:23.065728Z

Period
97.49 min
Inclination
98.2283°
Eccentricity
0.0043521
Mean motion
14.77022808 rev/d
Perigee alt
608.2 km
Apogee alt
669.3 km
Semi-major
7,016.9 km
B*
7.3128e-5
RAAN
171.0353°
Arg perigee
154.5725°
Mean anomaly
235.5522°
Rev number
81,051

§ Raw data

APRIZESAT 61 37793U 11044F   26258.71832252  .00000467  00000+0  73128-4 0  99932 37793  98.2283 171.0353 0043521 154.5725 235.5522 14.77022808810515

JSON: /api/v1/satellites/37793 · /tle

For live sub-satellite position, see the globe view (requires WebGL).

§ Visibility from observer

Set your observer location to see the next 7 days of passes ≥ 10°. The values pass through the URL so the page stays shareable.

No JS? Fill the form by hand. The geolocation button needs JavaScript.

§ Radio — SatNOGS DB

ModeDescriptionDownlinkUplink
GMSK Store and dump 400.591 MHz

1 transmitter · refreshed weekly from db.satnogs.org